Terminal Aerodrome Forecast
Issued by NWS Wilmington, OH

Current Version | Previous Version | Graphics & Text | Print | Product List | Glossary On
Versions: 1 2 3 4 5 6 7 8 9 10 11 12 13 14 15 16 17 18 19 20 21 22 23 24 25 26 27 28 29 30 31 32
000
FTUS41 KILN 271300 AAA
TAFILN
TAF AMD
KILN 271326Z 2713/2812 23014KT P6SM VCSH SCT012 BKN025 OVC040
     FM271400 25012G20KT P6SM VCSH OVC018
     FM271700 28012G20KT P6SM BKN025
     FM272100 30014G24KT P6SM BKN035
     FM280200 31012G22KT P6SM SCT040=

USA.gov is the U.S. government's official web portal to all federal, state and local government web resources and services.